Year,Month,Day,Hour,Minute,Value (Times are PST for windgust in km/hr)
2012,03,11,00,00,3.20
2012,03,11,00,01,1.60
2012,03,11,00,03,3.20
2012,03,11,00,04,3.20
2012,03,11,00,12,3.20
2012,03,11,00,13,1.60
2012,03,11,00,17,1.60
2012,03,11,00,20,1.60
2012,03,11,00,21,1.60
2012,03,11,00,22,3.20
2012,03,11,00,23,6.40
2012,03,11,00,24,4.80
2012,03,11,00,25,3.20
2012,03,11,00,26,4.80
2012,03,11,00,27,8.10
2012,03,11,00,28,3.20
2012,03,11,00,29,6.40
2012,03,11,00,30,6.40
2012,03,11,00,31,14.50
2012,03,11,00,32,16.10
2012,03,11,00,33,14.50
2012,03,11,00,34,19.30
2012,03,11,00,35,20.90
2012,03,11,00,36,8.10
2012,03,11,00,37,14.50
2012,03,11,00,38,9.60
2012,03,11,00,39,8.10
2012,03,11,00,40,16.10
2012,03,11,00,41,33.80
2012,03,11,00,42,22.50
2012,03,11,00,43,9.60
2012,03,11,00,44,11.30
2012,03,11,00,45,8.10
2012,03,11,00,46,4.80
2012,03,11,00,47,16.10
2012,03,11,00,48,8.10
2012,03,11,00,49,9.60
2012,03,11,00,50,8.10
2012,03,11,00,51,3.20
2012,03,11,00,52,4.80
2012,03,11,00,53,8.10
2012,03,11,00,54,3.20
2012,03,11,00,55,6.40
2012,03,11,00,56,8.10
2012,03,11,00,57,6.40
2012,03,11,00,58,3.20
2012,03,11,00,59,1.60
2012,03,11,01,00,4.80
2012,03,11,01,01,3.20
2012,03,11,01,02,3.20
2012,03,11,01,03,3.20
2012,03,11,01,05,3.20
2012,03,11,01,06,4.80
2012,03,11,01,07,3.20
2012,03,11,01,08,6.40
2012,03,11,01,09,6.40
2012,03,11,01,10,3.20
2012,03,11,01,11,4.80
2012,03,11,01,12,4.80
2012,03,11,01,13,6.40
2012,03,11,01,14,6.40
2012,03,11,01,15,1.60
2012,03,11,01,17,1.60
2012,03,11,01,18,1.60
2012,03,11,01,19,3.20
2012,03,11,01,20,3.20
2012,03,11,01,21,1.60
2012,03,11,01,22,1.60
2012,03,11,01,27,1.60
2012,03,11,01,36,1.60
2012,03,11,01,48,1.60
2012,03,11,01,51,1.60
2012,03,11,01,53,1.60
2012,03,11,01,55,1.60
2012,03,11,01,57,1.60
2012,03,11,01,58,3.20
2012,03,11,03,02,1.60
2012,03,11,03,03,3.20
2012,03,11,03,04,3.20
2012,03,11,03,05,1.60
2012,03,11,03,06,3.20
2012,03,11,03,07,3.20
2012,03,11,03,08,3.20
2012,03,11,03,09,4.80
2012,03,11,03,10,4.80
2012,03,11,03,11,3.20
2012,03,11,03,12,3.20
2012,03,11,03,14,1.60
2012,03,11,03,15,3.20
2012,03,11,03,16,3.20
2012,03,11,03,27,3.20
2012,03,11,03,28,4.80
2012,03,11,03,29,1.60
2012,03,11,03,30,6.40
2012,03,11,03,31,4.80
2012,03,11,03,32,4.80
2012,03,11,03,33,4.80
2012,03,11,03,34,4.80
2012,03,11,03,35,1.60
2012,03,11,03,37,6.40
2012,03,11,03,38,3.20
2012,03,11,03,39,4.80
2012,03,11,03,41,4.80
2012,03,11,03,42,4.80
2012,03,11,03,43,1.60
2012,03,11,03,44,4.80
2012,03,11,03,45,4.80
2012,03,11,03,46,8.10
2012,03,11,03,47,14.50
2012,03,11,03,48,3.20
2012,03,11,03,50,3.20
2012,03,11,03,54,1.60
2012,03,11,03,55,6.40
2012,03,11,03,56,6.40
2012,03,11,03,57,4.80
2012,03,11,04,00,3.20
2012,03,11,04,01,9.60
2012,03,11,04,02,14.50
2012,03,11,04,03,12.90
2012,03,11,04,04,17.70
2012,03,11,04,05,11.30
2012,03,11,04,06,11.30
2012,03,11,04,07,22.50
2012,03,11,04,08,8.10
2012,03,11,04,09,16.10
2012,03,11,04,10,19.30
2012,03,11,04,11,20.90
2012,03,11,04,12,24.20
2012,03,11,04,13,20.90
2012,03,11,04,14,16.10
2012,03,11,04,15,25.70
2012,03,11,04,16,19.30
2012,03,11,04,17,24.20
2012,03,11,04,18,24.20
2012,03,11,04,19,25.70
2012,03,11,04,20,25.70
2012,03,11,04,21,25.70
2012,03,11,04,22,22.50
2012,03,11,04,23,16.10
2012,03,11,04,24,25.70
2012,03,11,04,25,19.30
2012,03,11,04,26,25.70
2012,03,11,04,27,17.70
2012,03,11,04,28,14.50
2012,03,11,04,29,19.30
2012,03,11,04,30,19.30
2012,03,11,04,31,19.30
2012,03,11,04,32,11.30
2012,03,11,04,33,16.10
2012,03,11,04,34,19.30
2012,03,11,04,35,19.30
2012,03,11,04,36,17.70
2012,03,11,04,37,14.50
2012,03,11,04,38,11.30
2012,03,11,04,39,19.30
2012,03,11,04,40,17.70
2012,03,11,04,41,17.70
2012,03,11,04,42,11.30
2012,03,11,04,43,14.50
2012,03,11,04,44,16.10
2012,03,11,04,45,17.70
2012,03,11,04,46,11.30
2012,03,11,04,47,17.70
2012,03,11,04,48,19.30
2012,03,11,04,49,8.10
2012,03,11,04,50,14.50
2012,03,11,04,51,8.10
2012,03,11,04,52,11.30
2012,03,11,04,53,14.50
2012,03,11,04,54,16.10
2012,03,11,04,55,9.60
2012,03,11,04,56,4.80
2012,03,11,04,57,6.40
2012,03,11,04,58,16.10
2012,03,11,04,59,8.10
2012,03,11,05,00,3.20
2012,03,11,05,01,14.50
2012,03,11,05,02,19.30
2012,03,11,05,03,19.30
2012,03,11,05,04,14.50
2012,03,11,05,05,9.60
2012,03,11,05,06,3.20
2012,03,11,05,07,11.30
2012,03,11,05,08,11.30
2012,03,11,05,09,12.90
2012,03,11,05,10,11.30
2012,03,11,05,11,11.30
2012,03,11,05,12,11.30
2012,03,11,05,13,14.50
2012,03,11,05,14,6.40
2012,03,11,05,15,4.80
2012,03,11,05,16,20.90
2012,03,11,05,17,19.30
2012,03,11,05,18,14.50
2012,03,11,05,19,20.90
2012,03,11,05,20,20.90
2012,03,11,05,21,20.90
2012,03,11,05,22,16.10
2012,03,11,05,23,11.30
2012,03,11,05,24,20.90
2012,03,11,05,25,20.90
2012,03,11,05,26,17.70
2012,03,11,05,27,22.50
2012,03,11,05,28,27.40
2012,03,11,05,29,24.20
2012,03,11,05,30,19.30
2012,03,11,05,31,17.70
2012,03,11,05,32,8.10
2012,03,11,05,33,9.60
2012,03,11,05,34,14.50
2012,03,11,05,35,20.90
2012,03,11,05,36,16.10
2012,03,11,05,37,9.60
2012,03,11,05,38,11.30
2012,03,11,05,39,14.50
2012,03,11,05,40,19.30
2012,03,11,05,41,20.90
2012,03,11,05,42,19.30
2012,03,11,05,43,16.10
2012,03,11,05,44,17.70
2012,03,11,05,45,16.10
2012,03,11,05,46,14.50
2012,03,11,05,47,22.50
2012,03,11,05,48,16.10
2012,03,11,05,49,27.40
2012,03,11,05,50,17.70
2012,03,11,05,51,17.70
2012,03,11,05,52,19.30
2012,03,11,05,53,19.30
2012,03,11,05,54,22.50
2012,03,11,05,55,20.90
2012,03,11,05,56,19.30
2012,03,11,05,57,11.30
2012,03,11,05,58,16.10
2012,03,11,05,59,11.30
2012,03,11,06,00,6.40
2012,03,11,06,01,17.70
2012,03,11,06,02,17.70
2012,03,11,06,03,19.30
2012,03,11,06,04,14.50
2012,03,11,06,05,9.60
2012,03,11,06,06,6.40
2012,03,11,06,07,22.50
2012,03,11,06,08,20.90
2012,03,11,06,09,19.30
2012,03,11,06,10,24.20
2012,03,11,06,11,17.70
2012,03,11,06,12,17.70
2012,03,11,06,13,20.90
2012,03,11,06,14,19.30
2012,03,11,06,15,16.10
2012,03,11,06,16,22.50
2012,03,11,06,17,22.50
2012,03,11,06,18,17.70
2012,03,11,06,19,17.70
2012,03,11,06,20,24.20
2012,03,11,06,21,20.90
2012,03,11,06,22,14.50
2012,03,11,06,23,20.90
2012,03,11,06,24,19.30
2012,03,11,06,25,19.30
2012,03,11,06,26,19.30
2012,03,11,06,27,17.70
2012,03,11,06,28,24.20
2012,03,11,06,29,11.30
2012,03,11,06,30,14.50
2012,03,11,06,31,17.70
2012,03,11,06,32,16.10
2012,03,11,06,33,16.10
2012,03,11,06,34,9.60
2012,03,11,06,35,11.30
2012,03,11,06,36,17.70
2012,03,11,06,37,17.70
2012,03,11,06,38,8.10
2012,03,11,06,39,9.60
2012,03,11,06,40,4.80
2012,03,11,06,41,3.20
2012,03,11,06,42,4.80
2012,03,11,06,43,17.70
2012,03,11,06,44,17.70
2012,03,11,06,45,9.60
2012,03,11,06,46,9.60
2012,03,11,06,47,8.10
2012,03,11,06,48,8.10
2012,03,11,06,49,8.10
2012,03,11,06,50,4.80
2012,03,11,06,51,9.60
2012,03,11,06,52,9.60
2012,03,11,06,53,11.30
2012,03,11,06,54,6.40
2012,03,11,06,55,14.50
2012,03,11,06,56,9.60
2012,03,11,06,57,17.70
2012,03,11,06,58,9.60
2012,03,11,06,59,11.30
2012,03,11,07,00,9.60
2012,03,11,07,01,11.30
2012,03,11,07,02,14.50
2012,03,11,07,03,11.30
2012,03,11,07,04,11.30
2012,03,11,07,05,16.10
2012,03,11,07,06,12.90
2012,03,11,07,07,16.10
2012,03,11,07,08,9.60
2012,03,11,07,09,8.10
2012,03,11,07,10,9.60
2012,03,11,07,11,16.10
2012,03,11,07,12,20.90
2012,03,11,07,13,9.60
2012,03,11,07,14,9.60
2012,03,11,07,15,8.10
2012,03,11,07,16,11.30
2012,03,11,07,17,11.30
2012,03,11,07,18,12.90
2012,03,11,07,19,8.10
2012,03,11,07,20,14.50
2012,03,11,07,21,14.50
2012,03,11,07,22,9.60
2012,03,11,07,23,17.70
2012,03,11,07,24,16.10
2012,03,11,07,25,14.50
2012,03,11,07,26,9.60
2012,03,11,07,27,8.10
2012,03,11,07,28,14.50
2012,03,11,07,29,20.90
2012,03,11,07,30,8.10
2012,03,11,07,31,16.10
2012,03,11,07,32,11.30
2012,03,11,07,33,9.60
2012,03,11,07,34,22.50
2012,03,11,07,35,16.10
2012,03,11,07,36,14.50
2012,03,11,07,37,12.90
2012,03,11,07,38,11.30
2012,03,11,07,39,8.10
2012,03,11,07,40,9.60
2012,03,11,07,41,14.50
2012,03,11,07,42,12.90
2012,03,11,07,43,16.10
2012,03,11,07,44,9.60
2012,03,11,07,45,17.70
2012,03,11,07,46,17.70
2012,03,11,07,47,9.60
2012,03,11,07,48,8.10
2012,03,11,07,49,17.70
2012,03,11,07,50,6.40
2012,03,11,07,51,11.30
2012,03,11,07,52,9.60
2012,03,11,07,53,8.10
2012,03,11,07,54,6.40
2012,03,11,07,55,6.40
2012,03,11,07,56,6.40
2012,03,11,07,57,6.40
2012,03,11,07,58,8.10
2012,03,11,07,59,6.40
2012,03,11,08,00,6.40
2012,03,11,08,01,11.30
2012,03,11,08,02,11.30
2012,03,11,08,03,3.20
2012,03,11,08,04,3.20
2012,03,11,08,05,24.20
2012,03,11,08,06,14.50
2012,03,11,08,07,11.30
2012,03,11,08,08,8.10
2012,03,11,08,09,12.90
2012,03,11,08,10,17.70
2012,03,11,08,11,9.60
2012,03,11,08,12,8.10
2012,03,11,08,13,16.10
2012,03,11,08,14,20.90
2012,03,11,08,15,9.60
2012,03,11,08,16,16.10
2012,03,11,08,17,17.70
2012,03,11,08,18,19.30
2012,03,11,08,19,14.50
2012,03,11,08,20,22.50
2012,03,11,08,21,22.50
2012,03,11,08,22,17.70
2012,03,11,08,23,9.60
2012,03,11,08,24,20.90
2012,03,11,08,25,17.70
2012,03,11,08,26,25.70
2012,03,11,08,27,24.20
2012,03,11,08,28,20.90
2012,03,11,08,29,22.50
2012,03,11,08,30,22.50
2012,03,11,08,31,20.90
2012,03,11,08,32,16.10
2012,03,11,08,33,20.90
2012,03,11,08,34,20.90
2012,03,11,08,35,25.70
2012,03,11,08,36,29.00
2012,03,11,08,37,25.70
2012,03,11,08,38,27.40
2012,03,11,08,39,25.70
2012,03,11,08,40,29.00
2012,03,11,08,41,22.50
2012,03,11,08,42,24.20
2012,03,11,08,43,16.10
2012,03,11,08,44,25.70
2012,03,11,08,45,27.40
2012,03,11,08,46,11.30
2012,03,11,08,47,24.20
2012,03,11,08,48,19.30
2012,03,11,08,49,22.50
2012,03,11,08,50,19.30
2012,03,11,08,51,22.50
2012,03,11,08,52,17.70
2012,03,11,08,53,24.20
2012,03,11,08,54,22.50
2012,03,11,08,55,24.20
2012,03,11,08,56,17.70
2012,03,11,08,57,24.20
2012,03,11,08,58,19.30
2012,03,11,08,59,22.50
2012,03,11,09,00,19.30
2012,03,11,09,01,17.70
2012,03,11,09,02,19.30
2012,03,11,09,03,20.90
2012,03,11,09,04,25.70
2012,03,11,09,05,19.30
2012,03,11,09,06,17.70
2012,03,11,09,07,11.30
2012,03,11,09,08,11.30
2012,03,11,09,09,22.50
2012,03,11,09,10,6.40
2012,03,11,09,11,22.50
2012,03,11,09,12,11.30
2012,03,11,09,13,9.60
2012,03,11,09,14,22.50
2012,03,11,09,15,22.50
2012,03,11,09,16,17.70
2012,03,11,09,17,22.50
2012,03,11,09,18,27.40
2012,03,11,09,19,22.50
2012,03,11,09,20,19.30
2012,03,11,09,21,19.30
2012,03,11,09,22,20.90
2012,03,11,09,23,20.90
2012,03,11,09,24,17.70
2012,03,11,09,25,16.10
2012,03,11,09,26,22.50
2012,03,11,09,27,16.10
2012,03,11,09,28,22.50
2012,03,11,09,29,19.30
2012,03,11,09,30,22.50
2012,03,11,09,31,17.70
2012,03,11,09,32,9.60
2012,03,11,09,33,17.70
2012,03,11,09,34,19.30
2012,03,11,09,35,11.30
2012,03,11,09,36,17.70
2012,03,11,09,37,25.70
2012,03,11,09,38,20.90
2012,03,11,09,39,17.70
2012,03,11,09,40,27.40
2012,03,11,09,41,19.30
2012,03,11,09,42,25.70
2012,03,11,09,43,22.50
2012,03,11,09,44,17.70
2012,03,11,09,45,20.90
2012,03,11,09,46,8.10
2012,03,11,09,47,30.60
2012,03,11,09,48,30.60
2012,03,11,09,49,29.00
2012,03,11,09,50,33.80
2012,03,11,09,51,20.90
2012,03,11,09,52,22.50
2012,03,11,09,53,20.90
2012,03,11,09,54,20.90
2012,03,11,09,55,32.20
2012,03,11,09,56,25.70
2012,03,11,09,57,20.90
2012,03,11,09,58,27.40
2012,03,11,09,59,27.40
2012,03,11,10,00,27.40
2012,03,11,10,01,17.70
2012,03,11,10,02,27.40
2012,03,11,10,03,20.90
2012,03,11,10,04,20.90
2012,03,11,10,05,22.50
2012,03,11,10,06,33.80
2012,03,11,10,07,25.70
2012,03,11,10,08,29.00
2012,03,11,10,09,27.40
2012,03,11,10,10,22.50
2012,03,11,10,11,27.40
2012,03,11,10,12,30.60
2012,03,11,10,13,24.20
2012,03,11,10,14,24.20
2012,03,11,10,15,32.20
2012,03,11,10,16,35.40
2012,03,11,10,17,24.20
2012,03,11,10,18,22.50
2012,03,11,10,19,35.40
2012,03,11,10,20,25.70
2012,03,11,10,21,25.70
2012,03,11,10,22,19.30
2012,03,11,10,23,27.40
2012,03,11,10,24,22.50
2012,03,11,10,25,17.70
2012,03,11,10,26,20.90
2012,03,11,10,27,22.50
2012,03,11,10,28,29.00
2012,03,11,10,29,16.10
2012,03,11,10,30,17.70
2012,03,11,10,31,24.20
2012,03,11,10,32,27.40
2012,03,11,10,33,20.90
2012,03,11,10,34,20.90
2012,03,11,10,35,24.20
2012,03,11,10,36,25.70
2012,03,11,10,37,33.80
2012,03,11,10,38,19.30
2012,03,11,10,39,20.90
2012,03,11,10,40,24.20
2012,03,11,10,41,16.10
2012,03,11,10,42,22.50
2012,03,11,10,43,27.40
2012,03,11,10,44,20.90
2012,03,11,10,45,16.10
2012,03,11,10,46,16.10
2012,03,11,10,47,14.50
2012,03,11,10,48,22.50
2012,03,11,10,49,27.40
2012,03,11,10,50,24.20
2012,03,11,10,51,25.70
2012,03,11,10,52,16.10
2012,03,11,10,53,24.20
2012,03,11,10,54,29.00
2012,03,11,10,55,30.60
2012,03,11,10,56,25.70
2012,03,11,10,57,27.40
2012,03,11,10,58,27.40
2012,03,11,10,59,25.70
2012,03,11,11,00,27.40
2012,03,11,11,01,22.50
2012,03,11,11,02,19.30
2012,03,11,11,03,20.90
2012,03,11,11,04,24.20
2012,03,11,11,05,22.50
2012,03,11,11,06,25.70
2012,03,11,11,07,24.20
2012,03,11,11,08,24.20
2012,03,11,11,09,20.90
2012,03,11,11,10,19.30
2012,03,11,11,11,27.40
2012,03,11,11,12,25.70
2012,03,11,11,13,19.30
2012,03,11,11,14,29.00
2012,03,11,11,15,24.20
2012,03,11,11,16,29.00
2012,03,11,11,17,33.80
2012,03,11,11,18,24.20
2012,03,11,11,19,32.20
2012,03,11,11,20,35.40
2012,03,11,11,21,37.00
2012,03,11,11,22,35.40
2012,03,11,11,23,30.60
2012,03,11,11,24,32.20
2012,03,11,11,25,27.40
2012,03,11,11,26,37.00
2012,03,11,11,27,30.60
2012,03,11,11,28,33.80
2012,03,11,11,29,32.20
2012,03,11,11,30,27.40
2012,03,11,11,31,30.60
2012,03,11,11,32,27.40
2012,03,11,11,33,27.40
2012,03,11,11,34,32.20
2012,03,11,11,35,22.50
2012,03,11,11,36,24.20
2012,03,11,11,37,25.70
2012,03,11,11,38,22.50
2012,03,11,11,39,32.20
2012,03,11,11,40,22.50
2012,03,11,11,41,22.50
2012,03,11,11,42,24.20
2012,03,11,11,43,29.00
2012,03,11,11,44,20.90
2012,03,11,11,45,25.70
2012,03,11,11,46,40.20
2012,03,11,11,47,37.00
2012,03,11,11,48,27.40
2012,03,11,11,49,22.50
2012,03,11,11,50,19.30
2012,03,11,11,51,19.30
2012,03,11,11,52,16.10
2012,03,11,11,53,27.40
2012,03,11,11,54,24.20
2012,03,11,11,55,27.40
2012,03,11,11,56,27.40
2012,03,11,11,57,24.20
2012,03,11,11,58,32.20
2012,03,11,11,59,30.60
2012,03,11,12,00,20.90
2012,03,11,12,01,20.90
2012,03,11,12,02,30.60
2012,03,11,12,03,30.60
2012,03,11,12,04,32.20
2012,03,11,12,05,30.60
2012,03,11,12,06,25.70
2012,03,11,12,07,30.60
2012,03,11,12,08,24.20
2012,03,11,12,09,29.00
2012,03,11,12,10,38.60
2012,03,11,12,11,30.60
2012,03,11,12,12,25.70
2012,03,11,12,13,22.50
2012,03,11,12,14,37.00
2012,03,11,12,15,29.00
2012,03,11,12,16,27.40
2012,03,11,12,17,25.70
2012,03,11,12,18,35.40
2012,03,11,12,19,22.50
2012,03,11,12,20,35.40
2012,03,11,12,21,38.60
2012,03,11,12,22,29.00
2012,03,11,12,23,29.00
2012,03,11,12,24,37.00
2012,03,11,12,25,32.20
2012,03,11,12,26,30.60
2012,03,11,12,27,29.00
2012,03,11,12,28,27.40
2012,03,11,12,29,27.40
2012,03,11,12,30,24.20
2012,03,11,12,31,19.30
2012,03,11,12,32,25.70
2012,03,11,12,33,30.60
2012,03,11,12,34,25.70
2012,03,11,12,35,29.00
2012,03,11,12,36,27.40
2012,03,11,12,37,32.20
2012,03,11,12,38,27.40
2012,03,11,12,39,17.70
2012,03,11,12,40,29.00
2012,03,11,12,41,27.40
2012,03,11,12,42,25.70
2012,03,11,12,43,27.40
2012,03,11,12,44,20.90
2012,03,11,12,45,20.90
2012,03,11,12,46,24.20
2012,03,11,12,47,25.70
2012,03,11,12,48,25.70
2012,03,11,12,49,29.00
2012,03,11,12,50,16.10
2012,03,11,12,51,22.50
2012,03,11,12,52,29.00
2012,03,11,12,53,27.40
2012,03,11,12,54,16.10
2012,03,11,12,55,25.70
2012,03,11,12,56,14.50
2012,03,11,12,57,19.30
2012,03,11,12,58,19.30
2012,03,11,12,59,29.00
2012,03,11,13,00,22.50
2012,03,11,13,01,25.70
2012,03,11,13,02,16.10
2012,03,11,13,03,27.40
2012,03,11,13,04,22.50
2012,03,11,13,05,20.90
2012,03,11,13,06,33.80
2012,03,11,13,07,22.50
2012,03,11,13,08,24.20
2012,03,11,13,09,20.90
2012,03,11,13,10,25.70
2012,03,11,13,11,16.10
2012,03,11,13,12,30.60
2012,03,11,13,13,25.70
2012,03,11,13,14,25.70
2012,03,11,13,15,25.70
2012,03,11,13,16,19.30
2012,03,11,13,17,33.80
2012,03,11,13,18,25.70
2012,03,11,13,19,30.60
2012,03,11,13,20,20.90
2012,03,11,13,21,14.50
2012,03,11,13,22,27.40
2012,03,11,13,23,25.70
2012,03,11,13,24,27.40
2012,03,11,13,25,24.20
2012,03,11,13,26,25.70
2012,03,11,13,27,20.90
2012,03,11,13,28,29.00
2012,03,11,13,29,20.90
2012,03,11,13,30,32.20
2012,03,11,13,31,35.40
2012,03,11,13,32,22.50
2012,03,11,13,33,27.40
2012,03,11,13,34,30.60
2012,03,11,13,35,32.20
2012,03,11,13,36,24.20
2012,03,11,13,37,24.20
2012,03,11,13,38,22.50
2012,03,11,13,39,25.70
2012,03,11,13,40,20.90
2012,03,11,13,41,22.50
2012,03,11,13,42,17.70
2012,03,11,13,43,24.20
2012,03,11,13,44,19.30
2012,03,11,13,45,17.70
2012,03,11,13,46,16.10
2012,03,11,13,47,25.70
2012,03,11,13,48,17.70
2012,03,11,13,49,24.20
2012,03,11,13,50,27.40
2012,03,11,13,51,19.30
2012,03,11,13,52,9.60
2012,03,11,13,53,22.50
2012,03,11,13,54,14.50
2012,03,11,13,55,22.50
2012,03,11,13,56,19.30
2012,03,11,13,57,17.70
2012,03,11,13,58,19.30
2012,03,11,13,59,14.50
2012,03,11,14,00,27.40
2012,03,11,14,01,27.40
2012,03,11,14,02,22.50
2012,03,11,14,03,19.30
2012,03,11,14,04,20.90
2012,03,11,14,05,17.70
2012,03,11,14,06,24.20
2012,03,11,14,07,19.30
2012,03,11,14,08,22.50
2012,03,11,14,09,19.30
2012,03,11,14,10,25.70
2012,03,11,14,11,24.20
2012,03,11,14,12,25.70
2012,03,11,14,13,14.50
2012,03,11,14,14,27.40
2012,03,11,14,15,29.00
2012,03,11,14,16,19.30
2012,03,11,14,17,19.30
2012,03,11,14,18,25.70
2012,03,11,14,19,22.50
2012,03,11,14,20,25.70
2012,03,11,14,21,22.50
2012,03,11,14,22,20.90
2012,03,11,14,23,27.40
2012,03,11,14,24,27.40
2012,03,11,14,25,29.00
2012,03,11,14,26,11.30
2012,03,11,14,27,20.90
2012,03,11,14,28,29.00
2012,03,11,14,29,20.90
2012,03,11,14,30,16.10
2012,03,11,14,31,16.10
2012,03,11,14,32,33.80
2012,03,11,14,33,33.80
2012,03,11,14,34,38.60
2012,03,11,14,35,30.60
2012,03,11,14,36,27.40
2012,03,11,14,37,25.70
2012,03,11,14,38,29.00
2012,03,11,14,39,22.50
2012,03,11,14,40,24.20
2012,03,11,14,41,33.80
2012,03,11,14,42,27.40
2012,03,11,14,43,32.20
2012,03,11,14,44,25.70
2012,03,11,14,45,24.20
2012,03,11,14,46,17.70
2012,03,11,14,47,24.20
2012,03,11,14,48,22.50
2012,03,11,14,49,33.80
2012,03,11,14,50,29.00
2012,03,11,14,51,24.20
2012,03,11,14,52,24.20
2012,03,11,14,53,20.90
2012,03,11,14,54,29.00
2012,03,11,14,55,17.70
2012,03,11,14,56,16.10
2012,03,11,14,57,20.90
2012,03,11,14,58,20.90
2012,03,11,14,59,24.20
2012,03,11,15,00,27.40
2012,03,11,15,01,24.20
2012,03,11,15,02,22.50
2012,03,11,15,03,22.50
2012,03,11,15,04,22.50
2012,03,11,15,05,27.40
2012,03,11,15,06,22.50
2012,03,11,15,07,29.00
2012,03,11,15,08,33.80
2012,03,11,15,09,27.40
2012,03,11,15,10,29.00
2012,03,11,15,11,25.70
2012,03,11,15,12,33.80
2012,03,11,15,13,33.80
2012,03,11,15,14,24.20
2012,03,11,15,15,20.90
2012,03,11,15,16,14.50
2012,03,11,15,17,11.30
2012,03,11,15,18,14.50
2012,03,11,15,19,19.30
2012,03,11,15,20,16.10
2012,03,11,15,21,6.40
2012,03,11,15,22,14.50
2012,03,11,15,23,22.50
2012,03,11,15,24,14.50
2012,03,11,15,25,11.30
2012,03,11,15,26,22.50
2012,03,11,15,27,16.10
2012,03,11,15,28,25.70
2012,03,11,15,29,17.70
2012,03,11,15,30,25.70
2012,03,11,15,31,14.50
2012,03,11,15,32,20.90
2012,03,11,15,33,17.70
2012,03,11,15,34,22.50
2012,03,11,15,35,16.10
2012,03,11,15,36,22.50
2012,03,11,15,37,19.30
2012,03,11,15,38,9.60
2012,03,11,15,39,6.40
2012,03,11,15,40,11.30
2012,03,11,15,41,16.10
2012,03,11,15,42,16.10
2012,03,11,15,43,20.90
2012,03,11,15,44,14.50
2012,03,11,15,45,9.60
2012,03,11,15,46,16.10
2012,03,11,15,47,8.10
2012,03,11,15,48,14.50
2012,03,11,15,49,19.30
2012,03,11,15,50,19.30
2012,03,11,15,51,6.40
2012,03,11,15,52,19.30
2012,03,11,15,53,12.90
2012,03,11,15,54,19.30
2012,03,11,15,55,12.90
2012,03,11,15,56,20.90
2012,03,11,15,57,22.50
2012,03,11,15,58,29.00
2012,03,11,15,59,16.10
2012,03,11,16,00,19.30
2012,03,11,16,01,22.50
2012,03,11,16,02,16.10
2012,03,11,16,03,12.90
2012,03,11,16,04,11.30
2012,03,11,16,05,24.20
2012,03,11,16,06,11.30
2012,03,11,16,07,19.30
2012,03,11,16,08,17.70
2012,03,11,16,09,14.50
2012,03,11,16,10,14.50
2012,03,11,16,11,9.60
2012,03,11,16,12,17.70
2012,03,11,16,13,24.20
2012,03,11,16,14,9.60
2012,03,11,16,15,11.30
2012,03,11,16,16,9.60
2012,03,11,16,17,11.30
2012,03,11,16,18,11.30
2012,03,11,16,19,11.30
2012,03,11,16,20,14.50
2012,03,11,16,21,12.90
2012,03,11,16,22,16.10
2012,03,11,16,23,16.10
2012,03,11,16,24,16.10
2012,03,11,16,25,16.10
2012,03,11,16,26,8.10
2012,03,11,16,27,9.60
2012,03,11,16,28,9.60
2012,03,11,16,29,8.10
2012,03,11,16,30,6.40
2012,03,11,16,31,9.60
2012,03,11,16,32,9.60
2012,03,11,16,33,16.10
2012,03,11,16,34,22.50
2012,03,11,16,35,25.70
2012,03,11,16,36,19.30
2012,03,11,16,37,22.50
2012,03,11,16,38,22.50
2012,03,11,16,39,20.90
2012,03,11,16,40,11.30
2012,03,11,16,41,20.90
2012,03,11,16,42,17.70
2012,03,11,16,43,16.10
2012,03,11,16,44,14.50
2012,03,11,16,45,20.90
2012,03,11,16,46,22.50
2012,03,11,16,47,20.90
2012,03,11,16,48,22.50
2012,03,11,16,49,24.20
2012,03,11,16,50,11.30
2012,03,11,16,51,20.90
2012,03,11,16,52,17.70
2012,03,11,16,53,19.30
2012,03,11,16,54,20.90
2012,03,11,16,55,17.70
2012,03,11,16,56,11.30
2012,03,11,16,57,14.50
2012,03,11,16,58,20.90
2012,03,11,16,59,19.30
2012,03,11,17,00,11.30
2012,03,11,17,01,17.70
2012,03,11,17,02,19.30
2012,03,11,17,03,24.20
2012,03,11,17,04,22.50
2012,03,11,17,05,17.70
2012,03,11,17,06,22.50
2012,03,11,17,07,20.90
2012,03,11,17,08,19.30
2012,03,11,17,09,22.50
2012,03,11,17,10,17.70
2012,03,11,17,11,16.10
2012,03,11,17,12,8.10
2012,03,11,17,13,17.70
2012,03,11,17,14,19.30
2012,03,11,17,15,22.50
2012,03,11,17,16,16.10
2012,03,11,17,17,22.50
2012,03,11,17,18,24.20
2012,03,11,17,19,24.20
2012,03,11,17,20,19.30
2012,03,11,17,21,25.70
2012,03,11,17,22,24.20
2012,03,11,17,23,20.90
2012,03,11,17,24,19.30
2012,03,11,17,25,24.20
2012,03,11,17,26,19.30
2012,03,11,17,27,19.30
2012,03,11,17,28,14.50
2012,03,11,17,29,20.90
2012,03,11,17,30,19.30
2012,03,11,17,31,22.50
2012,03,11,17,32,24.20
2012,03,11,17,33,24.20
2012,03,11,17,34,30.60
2012,03,11,17,35,27.40
2012,03,11,17,36,14.50
2012,03,11,17,37,19.30
2012,03,11,17,38,16.10
2012,03,11,17,39,14.50
2012,03,11,17,40,25.70
2012,03,11,17,41,14.50
2012,03,11,17,42,11.30
2012,03,11,17,43,16.10
2012,03,11,17,44,14.50
2012,03,11,17,45,9.60
2012,03,11,17,46,19.30
2012,03,11,17,47,14.50
2012,03,11,17,48,9.60
2012,03,11,17,49,9.60
2012,03,11,17,50,9.60
2012,03,11,17,51,9.60
2012,03,11,17,52,8.10
2012,03,11,17,53,12.90
2012,03,11,17,54,8.10
2012,03,11,17,55,11.30
2012,03,11,17,56,6.40
2012,03,11,17,57,8.10
2012,03,11,17,58,9.60
2012,03,11,17,59,6.40
2012,03,11,18,00,9.60
2012,03,11,18,01,6.40
2012,03,11,18,02,4.80
2012,03,11,18,03,6.40
2012,03,11,18,04,6.40
2012,03,11,18,05,8.10
2012,03,11,18,06,9.60
2012,03,11,18,07,17.70
2012,03,11,18,08,11.30
2012,03,11,18,09,19.30
2012,03,11,18,10,17.70
2012,03,11,18,11,8.10
2012,03,11,18,12,11.30
2012,03,11,18,13,4.80
2012,03,11,18,14,6.40
2012,03,11,18,15,3.20
2012,03,11,18,16,9.60
2012,03,11,18,17,11.30
2012,03,11,18,18,6.40
2012,03,11,18,19,17.70
2012,03,11,18,20,16.10
2012,03,11,18,21,9.60
2012,03,11,18,22,11.30
2012,03,11,18,23,8.10
2012,03,11,18,24,11.30
2012,03,11,18,25,9.60
2012,03,11,18,26,9.60
2012,03,11,18,27,11.30
2012,03,11,18,28,9.60
2012,03,11,18,29,6.40
2012,03,11,18,30,14.50
2012,03,11,18,31,9.60
2012,03,11,18,32,9.60
2012,03,11,18,33,9.60
2012,03,11,18,34,8.10
2012,03,11,18,35,9.60
2012,03,11,18,36,4.80
2012,03,11,18,37,6.40
2012,03,11,18,38,4.80
2012,03,11,18,39,8.10
2012,03,11,18,40,8.10
2012,03,11,18,41,6.40
2012,03,11,18,42,6.40
2012,03,11,18,43,6.40
2012,03,11,18,44,8.10
2012,03,11,18,45,8.10
2012,03,11,18,46,8.10
2012,03,11,18,47,11.30
2012,03,11,18,48,4.80
2012,03,11,18,49,6.40
2012,03,11,18,50,8.10
2012,03,11,18,51,11.30
2012,03,11,18,52,16.10
2012,03,11,18,53,8.10
2012,03,11,18,54,14.50
2012,03,11,18,55,17.70
2012,03,11,18,56,6.40
2012,03,11,18,58,4.80
2012,03,11,18,59,4.80
2012,03,11,19,00,16.10
2012,03,11,19,01,6.40
2012,03,11,19,02,9.60
2012,03,11,19,03,8.10
2012,03,11,19,04,9.60
2012,03,11,19,05,14.50
2012,03,11,19,06,6.40
2012,03,11,19,07,9.60
2012,03,11,19,08,12.90
2012,03,11,19,09,9.60
2012,03,11,19,10,8.10
2012,03,11,19,11,14.50
2012,03,11,19,12,16.10
2012,03,11,19,13,8.10
2012,03,11,19,14,8.10
2012,03,11,19,15,8.10
2012,03,11,19,16,8.10
2012,03,11,19,17,6.40
2012,03,11,19,18,6.40
2012,03,11,19,19,8.10
2012,03,11,19,20,14.50
2012,03,11,19,21,14.50
2012,03,11,19,22,4.80
2012,03,11,19,23,11.30
2012,03,11,19,24,8.10
2012,03,11,19,25,6.40
2012,03,11,19,26,11.30
2012,03,11,19,27,4.80
2012,03,11,19,28,6.40
2012,03,11,19,29,9.60
2012,03,11,19,30,4.80
2012,03,11,19,31,3.20
2012,03,11,19,32,6.40
2012,03,11,19,33,8.10
2012,03,11,19,34,4.80
2012,03,11,19,35,3.20
2012,03,11,19,36,4.80
2012,03,11,19,37,3.20